VINASAT-1

Last updated on Sat Apr 13 2024 01:02:37 GMT+0100 (British Summer Time)

1 32767U 08018A 24103.47547174 -.00000337 00000+0 00000+0 0 9993 2 32767 0.0364 57.4787 0001904 351.2349 95.5399 1.00269743 58611
UTC large
Height (km)
Speed (km/s)
/
Latitude / Longitude
Inclination (degrees)
Orbital Period (minutes)
Azimuth
Elevation
Range (km)
Doppler Factor

Next 0 passes for location: London (51.5072 / 0.1276)

Sorry there are no passes over London.